GW2024 Weather Reports


time (UTC)temp
C
wind
direction
speed
KPH
gust
KPH
rain 1hr
cm
rain 24hr
cm
rain mn
cm
humidity
%
barometer
mb
20260510171218 28 22 6.4 11.3 0.00 0.00 0.00 76 1016.9
20260510170716 28 66 1.6 4.8 0.00 0.00 0.00 76 1017.0
20260510170211 28 2 4.8 6.4 0.00 0.00 0.00 75 1017.0
20260510165708 28 275 4.8 6.4 0.00 0.00 0.00 76 1016.9
20260510165204 28 327 3.2 9.7 0.00 0.00 0.00 74 1016.9
20260510164701 31 59 4.8 8.0 0.00 0.00 0.00 64 1016.7
20260510164158 31 269 3.2 6.4 0.00 0.00 0.00 59 1017.0
20260510163653 31 197 0.0 8.0 0.00 0.00 0.00 59 1017.2
20260510163149 31 265 3.2 4.8 0.00 0.00 0.00 64 1017.1
20260510162643 30 267 3.2 6.4 0.00 0.00 0.00 67 1017.1
20260510162141 30 229 4.8 6.4 0.00 0.00 0.00 66 1017.3
20260510161636 30 241 3.2 3.2 0.00 0.00 0.00 68 1017.3
20260510161133 30 249 3.2 4.8 0.00 0.00 0.00 69 1017.2
20260510160630 29 256 3.2 4.8 0.00 0.00 0.00 71 1017.2
20260510160130 30 273 3.2 3.2 0.00 0.00 0.00 69 1017.4
20260510155627 30 263 3.2 3.2 0.00 0.00 0.00 70 1017.3
20260510155123 29 253 3.2 4.8 0.00 0.00 0.00 71 1017.4
20260510154618 29 252 1.6 3.2 0.00 0.00 0.00 73 1017.3
20260510154114 29 266 3.2 3.2 0.00 0.00 0.00 73 1017.3
20260510153609 29 280 4.8 4.8 0.00 0.00 0.00 70 1017.4
20260510153106 29 284 3.2 4.8 0.00 0.00 0.00 75 1017.4
20260510152603 28 211 3.2 4.8 0.00 0.00 0.00 74 1017.5
20260510152059 28 271 3.2 4.8 0.00 0.00 0.00 74 1017.4
20260510151555 28 253 3.2 4.8 0.00 0.00 0.00 72 1017.3
20260510151053 28 273 3.2 4.8 0.00 0.00 0.00 72 1017.5
20260510150548 28 227 4.8 6.4 0.00 0.00 0.00 73 1017.4
20260510150044 28 224 1.6 3.2 0.00 0.00 0.00 77 1017.4
20260510145541 27 269 0.0 3.2 0.00 0.00 0.00 77 1017.2
20260510145038 27 280 1.6 4.8 0.00 0.00 0.00 76 1017.3
20260510144534 27 262 1.6 3.2 0.00 0.00 0.00 77 1017.2
20260510144030 28 274 3.2 3.2 0.00 0.00 0.00 77 1017.3
20260510143526 27 279 3.2 4.8 0.00 0.00 0.00 79 1017.3
20260510143023 28 246 3.2 4.8 0.00 0.00 0.00 77 1017.4
20260510142519 28 269 1.6 3.2 0.00 0.00 0.00 76 1017.2
20260510142016 27 284 3.2 3.2 0.00 0.00 0.00 79 1017.3
20260510141512 27 236 1.6 3.2 0.00 0.00 0.00 81 1017.1
20260510141009 27 263 1.6 3.2 0.00 0.00 0.00 80 1017.0
20260510140505 27 273 3.2 3.2 0.00 0.00 0.00 81 1017.0
20260510140000 27 253 1.6 3.2 0.00 0.00 0.00 81 1016.8
20260510135455 27 264 1.6 4.8 0.00 0.00 0.00 83 1016.8
20260510134953 26 253 1.6 1.6 0.00 0.00 0.00 86 1016.9
20260510134450 26 243 1.6 3.2 0.00 0.00 0.00 87 1016.6
20260510133947 25 237 1.6 3.2 0.00 0.00 0.00 89 1016.8
20260510133442 25 246 3.2 3.2 0.00 0.00 0.00 93 1016.8
20260510132938 25 271 0.0 1.6 0.00 0.00 0.00 94 1016.8
20260510132436 25 233 3.2 3.2 0.00 0.00 0.00 94 1016.9
20260510131932 24 162 0.0 4.8 0.00 0.00 0.00 96 1016.7
20260510131430 24 235 1.6 3.2 0.00 0.00 0.00 97 1016.5
20260510130926 24 235 1.6 3.2 0.00 0.00 0.00 98 1016.7
20260510130424 23 269 0.0 3.2 0.00 0.00 0.00 98 1016.4
20260510125921 23 96 0.0 3.2 0.00 0.00 0.00 98 1016.5
20260510125416 23 234 3.2 4.8 0.00 0.00 0.00 98 1016.7
20260510124914 23 285 0.0 1.6 0.00 0.00 0.00 98 1016.3
20260510124410 23 212 0.0 3.2 0.00 0.00 0.00 98 1016.4
20260510123906 23 256 0.0 3.2 0.00 0.00 0.00 98 1016.4
20260510123402 23 248 3.2 3.2 0.00 0.00 0.00 98 1016.2
20260510122858 23 203 0.0 3.2 0.00 0.00 0.00 98 1016.2
20260510122354 23 246 0.0 3.2 0.00 0.00 0.00 98 1016.1
20260510121850 23 242 0.0 1.6 0.00 0.00 0.00 98 1016.1
20260510121348 23 230 0.0 1.6 0.00 0.00 0.00 98 1016.0
20260510120845 23 269 0.0 0.0 0.00 0.00 0.00 98 1015.9
20260510120342 22 269 0.0 1.6 0.00 0.00 0.00 98 1016.1
20260510115838 22 256 0.0 1.6 0.00 0.00 0.00 98 1016.0
20260510115335 22 225 0.0 1.6 0.00 0.00 0.00 98 1015.9
20260510114830 22 230 0.0 0.0 0.00 0.00 0.00 98 1015.6
20260510114328 22 242 0.0 0.0 0.00 0.00 0.00 98 1015.8
20260510113828 22 242 0.0 0.0 0.00 0.00 0.00 98 1015.6
20260510113325 21 235 0.0 1.6 0.00 0.00 0.00 98 1015.6
20260510112822 21 212 0.0 1.6 0.00 0.00 0.00 98 1015.6
20260510112318 21 224 0.0 1.6 0.00 0.00 0.00 98 1015.4
20260510111814 21 242 0.0 1.6 0.00 0.00 0.00 98 1015.3
20260510111312 21 229 0.0 0.0 0.00 0.00 0.00 98 1015.1
20260510110811 21 230 0.0 0.0 0.00 0.00 0.00 98 1015.1
20260510110309 21 230 0.0 1.6 0.00 0.00 0.00 98 1015.5
20260510105804 21 235 0.0 0.0 0.00 0.00 0.00 98 1015.2
20260510105259 21 225 1.6 1.6 0.00 0.00 0.00 98 1015.2
20260510104756 21 164 0.0 1.6 0.00 0.00 0.00 98 1015.0
20260510104254 21 242 0.0 0.0 0.00 0.00 0.00 98 1014.9
20260510103749 21 254 0.0 0.0 0.00 0.00 0.00 98 1014.8
20260510103246 21 235 0.0 1.6 0.00 0.00 0.00 98 1014.7
20260510102746 21 212 0.0 0.0 0.00 0.00 0.00 98 1014.7
20260510102242 21 257 0.0 0.0 0.00 0.00 0.00 98 1014.7
20260510101740 21 249 0.0 0.0 0.00 0.00 0.00 98 1014.7
20260510101239 21 246 0.0 0.0 0.00 0.00 0.00 98 1014.4
20260510100733 21 242 0.0 0.0 0.00 0.00 0.00 98 1014.6
20260510100232 21 230 0.0 1.6 0.00 0.00 0.00 98 1014.3
20260510095727 21 218 0.0 0.0 0.00 0.00 0.00 98 1014.3
20260510095222 21 235 0.0 0.0 0.00 0.00 0.00 98 1014.3
20260510094721 21 246 0.0 0.0 0.00 0.00 0.00 98 1014.5
20260510094217 21 230 0.0 0.0 0.00 0.00 0.00 98 1014.4
20260510093713 21 202 0.0 1.6 0.00 0.00 0.00 98 1014.3
20260510093211 21 230 0.0 1.6 0.00 0.00 0.00 98 1014.3
20260510092707 22 217 0.0 1.6 0.00 0.00 0.00 98 1014.1
20260510092203 22 235 0.0 0.0 0.00 0.00 0.00 98 1014.1
20260510091658 22 269 0.0 0.0 0.00 0.00 0.00 98 1013.9
20260510091155 22 240 0.0 1.6 0.00 0.00 0.00 98 1014.1
20260510090652 22 242 0.0 0.0 0.00 0.00 0.00 98 1014.0
20260510090149 22 242 0.0 3.2 0.00 0.00 0.00 98 1014.0
20260510085643 22 218 0.0 3.2 0.00 0.00 0.00 98 1014.0
20260510085139 22 269 0.0 1.6 0.00 0.00 0.00 98 1013.9
20260510084635 22 217 0.0 0.0 0.00 0.00 0.00 98 1013.8
20260510084132 22 233 0.0 1.6 0.00 0.00 0.00 98 1013.7
20260510083629 22 224 0.0 0.0 0.00 0.00 0.00 98 1013.7
20260510083125 22 212 0.0 1.6 0.00 0.00 0.00 98 1013.7
20260510082621 22 293 0.0 0.0 0.00 0.00 0.00 98 1013.6
20260510082117 22 223 0.0 1.6 0.00 0.00 0.00 98 1013.6
20260510081611 22 258 0.0 3.2 0.00 0.00 0.00 98 1013.5
20260510081108 22 212 0.0 0.0 0.00 0.00 0.00 98 1013.5
20260510080602 22 257 0.0 1.6 0.00 0.00 0.00 98 1013.5
20260510080059 22 217 0.0 0.0 0.00 0.00 0.00 98 1013.4
20260510075556 22 242 0.0 1.6 0.00 0.00 0.00 98 1013.5
20260510075053 22 269 0.0 0.0 0.00 0.00 0.00 98 1013.5
20260510074550 22 230 0.0 1.6 0.00 0.00 0.00 98 1013.5
20260510074045 22 230 0.0 1.6 0.00 0.00 0.00 98 1013.8
20260510073542 22 230 0.0 1.6 0.00 0.00 0.00 98 1013.8
20260510073039 22 240 0.0 0.0 0.00 0.00 0.00 98 1013.7
20260510072536 21 235 0.0 0.0 0.00 0.00 0.00 98 1013.9
20260510072031 22 212 0.0 0.0 0.00 0.00 0.00 98 1013.7
20260510071527 22 230 0.0 0.0 0.00 0.00 0.00 98 1013.8
20260510071026 22 229 0.0 0.0 0.00 0.00 0.00 98 1013.8
20260510070522 22 235 0.0 0.0 0.00 0.00 0.00 98 1013.9
20260510070019 22 217 0.0 0.0 0.00 0.00 0.00 98 1014.1
20260510065516 22 217 0.0 0.0 0.00 0.00 0.00 98 1013.9
20260510065012 22 242 0.0 1.6 0.00 0.00 0.00 98 1014.1
20260510064509 22 217 0.0 0.0 0.00 0.00 0.00 98 1014.0
20260510064005 22 249 0.0 0.0 0.00 0.00 0.00 98 1014.0
20260510063502 22 242 0.0 0.0 0.00 0.00 0.00 98 1014.5
20260510062959 22 239 0.0 1.6 0.00 0.00 0.00 98 1014.5
20260510062454 22 230 0.0 0.0 0.00 0.00 0.00 98 1014.7
20260510061944 22 236 0.0 1.6 0.00 0.00 0.00 98 1014.4
20260510061441 22 126 0.0 1.6 0.00 0.00 0.00 98 1014.6
20260510060937 22 216 1.6 1.6 0.00 0.00 0.00 98 1014.6
20260510060435 22 113 0.0 1.6 0.00 0.00 0.00 98 1014.8
20260510055930 22 89 0.0 1.6 0.00 0.00 0.00 98 1014.8
20260510055426 22 235 0.0 3.2 0.00 0.00 0.00 98 1014.9
20260510054919 22 110 1.6 3.2 0.00 0.00 0.00 98 1014.9
20260510054414 22 257 0.0 1.6 0.00 0.00 0.00 98 1014.8
20260510053909 22 78 0.0 0.0 0.00 0.00 0.00 98 1014.9
20260510053405 21 242 0.0 1.6 0.00 0.00 0.00 98 1015.1
20260510052902 21 242 0.0 0.0 0.00 0.00 0.00 98 1015.0
20260510052358 21 189 0.0 1.6 0.00 0.00 0.00 97 1015.2
20260510051854 21 195 0.0 0.0 0.00 0.00 0.00 97 1015.0
20260510051350 21 180 0.0 0.0 0.00 0.00 0.00 97 1015.1
20260510050847 21 229 0.0 1.6 0.00 0.00 0.00 97 1015.4
20260510050344 21 230 0.0 0.0 0.00 0.00 0.00 97 1015.4
20260510045841 21 239 0.0 0.0 0.00 0.00 0.00 97 1015.5
20260510045338 21 226 0.0 0.0 0.00 0.00 0.00 97 1015.4
20260510044835 21 217 0.0 1.6 0.00 0.00 0.00 97 1015.5
20260510044332 21 214 0.0 1.6 0.00 0.00 0.00 97 1015.3
20260510043828 21 230 0.0 0.0 0.00 0.00 0.00 97 1015.6
20260510043324 22 230 0.0 0.0 0.00 0.00 0.00 97 1015.6
20260510042822 22 217 0.0 1.6 0.00 0.00 0.00 97 1015.5
20260510042318 22 230 0.0 0.0 0.00 0.00 0.00 97 1015.6
20260510041814 22 217 0.0 0.0 0.00 0.00 0.00 97 1015.4
20260510041312 22 212 0.0 0.0 0.00 0.00 0.00 97 1015.6
20260510040809 22 216 0.0 1.6 0.00 0.00 0.00 97 1015.5
20260510040305 22 230 0.0 0.0 0.00 0.00 0.00 97 1015.4
20260510035801 22 212 0.0 0.0 0.00 0.66 0.66 97 1015.6
20260510035257 22 230 0.0 0.0 0.00 0.66 0.66 97 1015.4
20260510034753 22 212 0.0 0.0 0.00 0.66 0.66 97 1015.7
20260510034250 22 240 0.0 0.0 0.00 0.66 0.66 97 1015.8
20260510033746 22 230 0.0 0.0 0.00 0.66 0.66 97 1015.6
20260510033239 22 237 0.0 0.0 0.00 0.66 0.66 97 1015.5
20260510032734 22 242 0.0 0.0 0.00 0.66 0.66 97 1015.4
20260510032231 22 242 0.0 0.0 0.00 0.66 0.66 97 1015.6
20260510031726 22 256 0.0 0.0 0.00 0.66 0.66 97 1015.5
20260510031222 22 242 0.0 0.0 0.00 0.66 0.66 97 1015.7
20260510030722 22 242 0.0 1.6 0.00 0.66 0.66 97 1015.6
20260510030219 22 242 0.0 0.0 0.00 0.66 0.66 97 1015.4
20260510025717 22 212 0.0 1.6 0.00 0.66 0.66 97 1015.4
20260510025213 22 246 0.0 0.0 0.00 0.66 0.66 97 1015.7
20260510024710 22 243 0.0 1.6 0.00 0.66 0.66 97 1015.3
20260510024207 22 247 0.0 0.0 0.00 0.66 0.66 97 1015.4
20260510023702 22 202 0.0 1.6 0.00 0.66 0.66 97 1015.1
20260510023200 22 230 0.0 1.6 0.00 0.66 0.66 97 1015.3
20260510022655 22 222 0.0 3.2 0.00 0.66 0.66 97 1015.0
20260510022150 22 150 0.0 0.0 0.00 0.66 0.66 97 1015.2
20260510021646 22 246 0.0 0.0 0.00 0.66 0.66 97 1015.3
20260510021143 22 256 0.0 3.2 0.00 0.66 0.66 97 1015.3
20260510020638 22 246 0.0 0.0 0.00 0.66 0.66 97 1014.8
20260510020133 22 230 0.0 1.6 0.00 0.66 0.66 97 1015.0
20260510015629 22 269 0.0 0.0 0.00 0.66 0.66 97 1014.9
20260510015126 22 243 0.0 3.2 0.00 0.66 0.66 97 1014.8
20260510014621 22 143 0.0 1.6 0.00 0.66 0.66 96 1014.5
20260510014119 22 230 0.0 1.6 0.00 0.66 0.66 97 1014.8
20260510013614 22 235 0.0 1.6 0.00 0.66 0.66 96 1014.8
20260510013109 22 201 0.0 3.2 0.00 0.66 0.66 96 1014.7
20260510012608 22 241 0.0 0.0 0.00 0.66 0.66 96 1014.5
20260510012106 22 256 0.0 1.6 0.00 0.66 0.66 96 1014.7
20260510011605 22 242 0.0 3.2 0.00 0.66 0.66 96 1014.6
20260510011101 22 209 3.2 3.2 0.00 0.66 0.66 96 1014.6
20260510010558 22 214 0.0 1.6 0.00 0.66 0.66 96 1014.7
20260510010055 22 229 0.0 1.6 0.00 0.66 0.66 96 1014.6
20260510005550 22 269 0.0 0.0 0.00 0.66 0.66 96 1014.6
20260510005048 22 219 1.6 3.2 0.00 0.66 0.66 96 1014.6
20260510004546 22 195 0.0 1.6 0.00 0.66 0.66 96 1014.5
20260510004043 22 230 0.0 1.6 0.00 0.66 0.66 95 1014.3
20260510003540 22 242 0.0 0.0 0.00 0.66 0.66 95 1014.3
20260510003035 22 232 0.0 1.6 0.00 0.66 0.66 95 1014.4
20260510002531 22 246 0.0 0.0 0.00 0.66 0.66 95 1014.2
20260510002028 22 173 0.0 0.0 0.00 0.66 0.66 95 1014.2
20260510001525 22 245 0.0 1.6 0.00 0.66 0.66 95 1014.2
20260510001024 22 246 0.0 1.6 0.00 0.66 0.66 95 1014.2
20260510000519 22 215 0.0 1.6 0.00 0.66 0.66 95 1013.8
20260510000016 22 230 0.0 0.0 0.00 0.66 0.66 95 1013.9
20260509235513 22 235 0.0 1.6 0.00 0.66 0.66 95 1013.8
20260509235009 23 245 0.0 1.6 0.00 0.66 0.66 94 1013.6
20260509234506 23 238 0.0 0.0 0.00 0.66 0.66 94 1013.6
20260509234004 23 245 0.0 1.6 0.00 0.66 0.66 94 1013.8
20260509233500 23 199 3.2 3.2 0.00 0.66 0.66 94 1014.0
20260509232956 23 196 1.6 1.6 0.00 0.66 0.66 94 1013.7
20260509232455 23 230 0.0 3.2 0.00 0.66 0.66 94 1013.7
20260509231950 23 230 0.0 1.6 0.00 0.66 0.66 94 1013.6
20260509231447 23 242 0.0 3.2 0.00 0.66 0.66 93 1013.7
20260509230945 23 230 0.0 1.6 0.00 0.66 0.66 93 1013.7
20260509230441 23 242 0.0 1.6 0.00 0.66 0.66 93 1013.5
20260509225938 23 242 0.0 1.6 0.00 0.66 0.66 93 1013.5
20260509225434 23 107 0.0 3.2 0.00 0.66 0.66 94 1013.4
20260509224930 23 307 0.0 1.6 0.00 0.66 0.66 94 1013.5
20260509224425 23 230 0.0 0.0 0.00 0.66 0.66 94 1013.3
20260509223923 23 22 0.0 1.6 0.00 0.66 0.66 94 1013.4
20260509223420 23 217 0.0 1.6 0.00 0.66 0.66 94 1013.3
20260509222917 23 349 1.6 3.2 0.00 0.66 0.66 94 1013.4
20260509222412 23 50 0.0 1.6 0.00 0.66 0.66 95 1013.4
20260509221908 23 218 0.0 1.6 0.00 0.66 0.66 95 1013.3
20260509221405 23 315 0.0 1.6 0.00 0.66 0.66 95 1013.0
20260509220901 23 269 0.0 1.6 0.00 0.66 0.66 95 1013.2
20260509220357 23 316 0.0 1.6 0.00 0.66 0.66 95 1013.3
20260509215852 23 0 0.0 3.2 0.00 0.66 0.66 95 1013.3
20260509215344 23 327 1.6 3.2 0.00 0.66 0.66 94 1013.3
20260509214841 23 317 0.0 3.2 0.00 0.66 0.66 94 1013.3
20260509214338 23 229 0.0 1.6 0.00 0.66 0.66 95 1013.4
20260509213835 23 242 0.0 1.6 0.00 0.66 0.66 95 1013.3
20260509213330 23 247 0.0 0.0 0.00 0.66 0.66 95 1013.2
20260509212828 23 269 0.0 1.6 0.00 0.66 0.66 95 1013.2
20260509212326 22 232 0.0 0.0 0.00 0.66 0.66 94 1013.2
20260509211821 23 251 0.0 1.6 0.00 0.66 0.66 94 1013.5
20260509211317 23 230 0.0 1.6 0.00 0.66 0.66 95 1013.3
20260509210814 23 230 0.0 1.6 0.00 0.66 0.66 95 1013.4
20260509210312 23 343 1.6 3.2 0.00 0.66 0.66 95 1013.1
20260509205811 23 239 1.6 3.2 0.00 0.66 0.66 95 1013.3
20260509205307 23 292 1.6 3.2 0.00 0.66 0.66 96 1013.1
20260509204803 23 255 0.0 1.6 0.00 0.66 0.66 95 1013.2
20260509204259 23 278 1.6 3.2 0.00 0.66 0.66 95 1013.3
20260509203755 23 120 0.0 3.2 0.00 0.66 0.66 95 1013.3
20260509203253 23 185 0.0 1.6 0.05 0.66 0.66 95 1013.5
20260509202748 23 275 0.0 1.6 0.05 0.66 0.66 95 1013.2
20260509202244 23 198 3.2 3.2 0.00 0.66 0.66 95 1013.1
20260509201738 23 232 0.0 3.2 0.00 0.66 0.66 94 1013.0
20260509201235 23 337 0.0 1.6 0.00 0.66 0.66 94 1013.0
20260509200731 23 347 0.0 6.4 0.53 0.66 0.66 93 1013.1
20260509200227 23 77 0.0 4.8 3.43 0.66 0.66 92 1013.2
20260509195723 23 1 6.4 8.0 2.95 0.51 0.51 89 1013.6
20260509195218 26 274 6.4 8.0 0.05 0.03 0.03 85 1013.8
20260509194713 26 254 1.6 3.2 0.13 0.03 0.03 83 1012.9
20260509194210 27 282 1.6 4.8 0.13 0.03 0.03 81 1012.8
20260509193707 27 329 0.0 3.2 0.00 0.00 0.00 76 1013.0
20260509193206 28 311 0.0 3.2 0.00 0.00 0.00 69 1012.8
20260509192703 28 276 3.2 3.2 0.00 0.00 0.00 67 1012.8
20260509192158 28 255 0.0 4.8 0.00 0.00 0.00 66 1012.3
20260509191654 29 288 1.6 1.6 0.00 0.00 0.00 65 1012.5
20260509191150 29 266 1.6 3.2 0.00 0.00 0.00 63 1012.6
20260509190647 29 255 0.0 3.2 0.00 0.00 0.00 64 1012.4
20260509190144 29 246 0.0 3.2 0.00 0.00 0.00 62 1012.6
20260509185642 30 282 1.6 3.2 0.00 0.00 0.00 62 1012.7
20260509185137 30 288 3.2 3.2 0.00 0.00 0.00 64 1012.9
20260509184635 30 238 0.0 3.2 0.00 0.00 0.00 64 1012.7
20260509184131 30 269 1.6 4.8 0.00 0.00 0.00 62 1012.8
20260509183628 30 276 1.6 4.8 0.00 0.00 0.00 60 1013.1
20260509183118 30 278 3.2 3.2 0.00 0.00 0.00 63 1013.3
20260509182614 30 301 1.6 3.2 0.00 0.00 0.00 63 1013.5
20260509182111 30 292 4.8 4.8 0.00 0.00 0.00 62 1013.4
20260509181609 30 276 1.6 3.2 0.00 0.00 0.00 62 1013.2
20260509181106 30 221 0.0 3.2 0.00 0.00 0.00 67 1013.4
20260509180603 30 288 4.8 6.4 0.00 0.00 0.00 63 1013.4
20260509180100 30 277 1.6 3.2 0.00 0.00 0.00 66 1013.6
20260509175555 30 190 3.2 3.2 0.00 0.00 0.00 64 1013.6
20260509175052 30 264 3.2 3.2 0.00 0.00 0.00 64 1013.6
20260509174548 30 280 1.6 4.8 0.00 0.00 0.00 65 1013.7
20260509174043 30 283 3.2 3.2 0.00 0.00 0.00 68 1013.7
20260509173538 30 282 1.6 3.2 0.00 0.00 0.00 66 1013.8
20260509173035 30 256 1.6 4.8 0.00 0.00 0.00 67 1013.6
20260509172532 29 266 1.6 3.2 0.00 0.00 0.00 65 1013.9
20260509172028 29 294 3.2 4.8 0.00 0.00 0.00 63 1013.8